Regional Weather Roundup
Issued by NWS

Home | Current Version | Previous Version | Text Only | Print | Product List | Glossary On
Versions: 1 2 3 4 5 6 7 8 9 10 11 12 13 14 15 16 17 18 19 20 21 22 23 24 25 26 27 28 29 30 31 32 33 34 35 36 37 38 39 40 41 42 43 44 45 46 47 48 49 50
270
ASUS44 KJAN 010803
RWRMS

MISSISSIPPI HOURLY WEATHER ROUNDUP
NATIONAL WEATHER SERVICE JACKSON MS
200 AM CST SUN FEB 01 2015

NOTE: "FAIR: INDICATES FEW OR NO CLOUDS BELOW 12,000 FEET WITH NO
SIGNIFICANT WEATHER AND/OR OBSTRUCTIONS TO VISIBILITY.

MSZ001>002-007>008-010>013-018>021-025>028-034>036-010900-
NORTHWEST MISSISSIPPI

CITY           SKY/WX    TMP DP  RH WIND       PRES   REMARKS
CLARKSDALE     MOCLDY    48  32  53 SE12      30.02F
CLEVELAND      FAIR      51  38  61 S9        30.02S
GREENWOOD      LGT RAIN  52  35  52 S14       30.04F
GREENVILLE     LGT RAIN  50  37  61 S12       30.02S
GRENADA        RAIN      50  32  50 S9        30.04F
OLIVE BRANCH   PTCLDY    48  28  46 S10G17    30.03F
OXFORD         FAIR      48  25  40 SE8       30.07F
TUNICA         CLOUDY    50  30  46 SE13      30.00F
$$

MSZ003>006-009-014>017-022>024-029>033-037>039-010900-
NORTHEAST MISSISSIPPI

CITY           SKY/WX    TMP DP  RH WIND       PRES   REMARKS
COLUMBUS AFB   CLOUDY    43  27  54 SE8       30.11F
GOLDN TRIANGLE MOCLDY    46  27  46 SE10      30.10F
STARKVILLE     FAIR      45  30  57 S6        30.10F
TUPELO         MOCLDY    49  25  39 S7        30.08F
$$

MSZ040-058-010900-
CENTRAL MISSISSIPPI

CITY           SKY/WX    TMP DP  RH WIND       PRES   REMARKS
JACKSON INTL   LGT RAIN  52  44  74 SE13      30.07F
JACKSON HAWKNS LGT RAIN  52  45  77 SE10      30.06F
MERIDIAN KEY   CLOUDY    49  41  74 S12       30.11F
MERIDIAN NAS   CLOUDY    44  32  62 E7        30.12F
RAYMOND        FAIR      54  48  82 S8        30.07F
VICKSBURG      LGT RAIN  53  47  79 S10       30.05F
$$

MSZ059>079-010900-
SOUTH MISSISSIPPI

CITY           SKY/WX    TMP DP  RH WIND       PRES   REMARKS
BROOKHAVEN       N/A     52  48  87 SE6       30.08F
HATTIESBURG    CLOUDY    46  42  86 CALM      30.11F
MCCOMB         MOCLDY    50  46  86 SE6       30.08F
NATCHEZ        CLOUDY    55  46  71 SE15      30.04F
PINE BELT      CLOUDY    50  43  76 SE7       30.10F
$$

MSZ080>082-010900-
COASTAL MISSISSIPPI

CITY           SKY/WX    TMP DP  RH WIND       PRES   REMARKS
BILOXI         MOCLDY    53  51  93 E8        30.10F
PASCAGOULA     PTCLDY    44  43  96 CALM      30.14F
GULFPORT       CLOUDY    52  50  93 E6        30.10F
$$



USA.gov is the U.S. government's official web portal to all federal, state and local government web resources and services.